Patuxent River, MD

12:13 PM EDT on May 24, 2017 (GMT -0400)
Patuxent River Naval Air Station

Weather History for KNHK - February, 2012

Change the Weather History Date:

Friday, February 3, 2012

  Actual Average Record
Temperature  
Mean Temperature 38 °F -  
Max Temperature 46 °F 44 °F 61 °F (2016)
Min Temperature 30 °F 28 °F 21 °F (2015)
Degree Days  
Heating Degree Days 27    
Moisture  
Dew Point 28 °F    
Average Humidity 64    
Maximum Humidity 85    
Minimum Humidity 47    
Precipitation  
Precipitation 0.00 in - - ()
Sea Level Pressure  
Sea Level Pressure 30.43 in    
Wind  
Wind Speed 9 mph (NNW)    
Max Wind Speed 14 mph    
Max Gust Speed -    
Visibility 10 miles    
Events      
Averages and records for this station are not official NWS values.
T = Trace of Precipitation, MM = Missing Value Source: NWS Daily Summary

Daily Weather History Graph

Daily Weather History Graph

Search for Another Location

Airport or City:

Trip Planner

Search our weather history database for the weather conditions in past years. The results will help you decide how hot, cold, wet, or windy it might be!

Date:

Astronomy

Feb. 03, 2012 Rise Set
Actual Time 7:09 AM EST 5:30 PM EST
Civil Twilight 6:41 AM EST 5:57 PM EST
Nautical Twilight 6:10 AM EST 6:29 PM EST
Astronomical Twilight 5:39 AM EST 7:00 PM EST
Moon 1:31 PM EST (2/3) 3:41 AM EST (2/3)
Length of Visible Light 11h 16m
Length of Day
10h 20m
Waxing Gibbous, 81% of the Moon is Illuminated
Feb 3
Waxing Gibbous
Feb 7
Full
Feb 14
Last Quarter
Feb 21
New
Feb 29
First Quarter

Hourly Weather History & Observations

Time (EST) Temp. Windchill Dew Point Humidity Pressure Visibility Wind Dir Wind Speed Gust Speed Precip Events Conditions
12:52 AM 41.0 °F 33.9 °F 28.0 °F 60% 30.34 in 10.0 mi NNW 12.7 mph - N/A   Clear
1:52 AM 39.9 °F 33.4 °F 27.0 °F 60% 30.36 in 10.0 mi NNW 10.4 mph - N/A   Clear
2:52 AM 39.9 °F 32.9 °F 27.0 °F 60% 30.38 in 10.0 mi NNW 11.5 mph - N/A   Clear
3:52 AM 39.9 °F 33.4 °F 27.0 °F 60% 30.40 in 10.0 mi NNW 10.4 mph - N/A   Clear
4:52 AM 37.9 °F 30.9 °F 27.0 °F 65% 30.41 in 10.0 mi NW 10.4 mph - N/A   Clear
5:52 AM 37.9 °F 30.5 °F 28.0 °F 68% 30.43 in 10.0 mi NW 11.5 mph - N/A   Clear
6:11 AM 37.4 °F 30.8 °F 26.6 °F 65% 30.45 in 10.0 mi NW 9.2 mph - N/A   Clear
6:52 AM 37.0 °F 31.0 °F 27.0 °F 67% 30.47 in 10.0 mi NW 8.1 mph - N/A   Clear
7:52 AM 37.9 °F 32.7 °F 28.9 °F 70% 30.50 in 10.0 mi NW 6.9 mph - N/A   Partly Cloudy
8:52 AM 41.0 °F 33.5 °F 27.0 °F 57% 30.50 in 10.0 mi NW 13.8 mph - N/A   Clear
9:52 AM 43.0 °F 36.8 °F 27.0 °F 53% 30.51 in 10.0 mi NW 11.5 mph - N/A   Clear
10:52 AM 45.0 °F 38.9 °F 27.0 °F 49% 30.51 in 10.0 mi NNW 12.7 mph - N/A   Clear
11:52 AM 46.0 °F 42.5 °F 27.0 °F 47% 30.49 in 10.0 mi NW 6.9 mph - N/A   Clear
12:52 PM 45.0 °F 40.6 °F 30.0 °F 56% 30.46 in 10.0 mi NNE 8.1 mph - N/A   Partly Cloudy
1:52 PM 46.9 °F - 30.0 °F 52% 30.43 in 10.0 mi NNE 8.1 mph - N/A   Partly Cloudy
2:52 PM 46.0 °F 42.5 °F 28.0 °F 50% 30.42 in 10.0 mi NNE 6.9 mph - N/A   Scattered Clouds
3:52 PM 46.0 °F - 28.0 °F 50% 30.42 in 10.0 mi Calm Calm - N/A   Mostly Cloudy
4:52 PM 43.0 °F 41.3 °F 28.9 °F 58% 30.42 in 10.0 mi East 3.5 mph - N/A   Mostly Cloudy
5:52 PM 39.9 °F 37.8 °F 28.9 °F 65% 30.43 in 10.0 mi ESE 3.5 mph - N/A   Scattered Clouds
6:52 PM 34.0 °F 31.0 °F 28.0 °F 79% 30.44 in 10.0 mi South 3.5 mph - N/A   Partly Cloudy
7:52 PM 32.0 °F - 27.0 °F 82% 30.43 in 10.0 mi Calm Calm - N/A   Partly Cloudy
8:52 PM 32.0 °F 28.7 °F 27.0 °F 82% 30.43 in 10.0 mi South 3.5 mph - N/A   Partly Cloudy
9:52 PM 36.0 °F 32.1 °F 28.0 °F 73% 30.42 in 10.0 mi South 4.6 mph - N/A   Partly Cloudy
10:52 PM 30.9 °F - 27.0 °F 85% 30.41 in 10.0 mi Calm Calm - N/A   Clear
11:52 PM 36.0 °F 33.3 °F 30.9 °F 82% 30.39 in 10.0 mi South 3.5 mph - N/A   Clear